Location: Aldenham
(51.6667°N, 0.3500°W)
Time: 02:54:47
(UTC+00:00)

A-11 Canister half - Pass Details

Date: 20 February 2026
Orbit: 1513 x 1687 km, 47.2° (Epoch: 13 March)

Event Time Altitude Azimuth Distance (km) Brightness Sun altitude
Rises 21:42:34 0° 245° (WSW) 4,936 11.9 -38.7°
Reaches altitude 10° 21:45:47 10° 242° (WSW) 3,944 11.3 -39.0°
Enters shadow 21:51:47 40° 227° (SW) 2,301 9.8 -39.7°
Maximum altitude 21:55:43 63° 165° (SSE) 1,817 - -40.2°
Drops below altitude 10° 22:05:24 10° 88° (E) 3,850 - -41.3°
Sets 22:08:30 0° 85° (E) 4,814 - -41.6°
